Theta_e
309 310 310 310 310 310 310 310 310 310 309 309 309 308 307 307 309 311 311 312 313 314 315 313 313 315 314 313 312 307 310 311 313 312 314 312 313 311 310 312 311 309 310 309 309
310 310 310 310 310 310 310 310 310 310 310 310 309 308 307 307 310 312 311 311 313 313 314 312 312 312 311 314 313 312 308 310 308 310 313 313 312 313 313 312 310 311 308 308 308
310 310 310 310 310 310 310 310 310 310 310 310 310 309 307 308 309 308 315 312 313 314 314 313 313 312 314 314 314 312 314 310 311 309 312 313 312 311 311 311 308 311 310 305 306
312 312 312 311 311 310 309 308 308 309 310 311 310 310 308 310 309 310 314 314 314 314 314 312 311 313 313 314 313 316 312 312 313 313 314 313 310 312 309 314 311 307 308 306 304
314 314 314 314 313 314 313 311 309 307 306 308 310 310 308 309 308 312 311 314 314 313 313 310 311 311 313 311 312 314 313 313 311 311 311 311 312 311 309 309 306 305 305 305 304
315 315 315 314 315 315 315 312 309 309 308 306 305 308 310 308 311 311 312 314 314 313 311 310 310 309 312 312 313 312 312 311 310 311 311 313 313 310 311 308 308 307 305 304 303
315 315 315 315 316 317 317 312 309 309 309 309 305 307 311 307 311 311 313 312 313 312 308 310 311 311 311 312 311 312 312 308 308 310 310 309 312 310 311 309 308 307 305 304 303
315 315 316 316 317 318 316 312 309 308 309 309 305 310 305 308 310 310 311 310 310 311 311 311 311 310 311 310 308 310 309 310 308 308 310 310 311 310 308 307 307 306 304 303 304
316 316 317 317 318 319 316 314 310 309 309 307 310 310 306 308 310 310 311 310 309 310 310 311 310 309 309 307 307 306 307 306 307 307 310 309 309 309 308 307 307 307 306 306 306
318 318 319 319 319 320 317 310 311 313 313 316 315 309 308 309 311 310 309 309 309 308 309 309 306 308 306 306 309 307 306 306 307 308 307 308 309 308 309 307 309 309 309 307 307
320 320 320 320 320 321 318 309 305 304 311 308 310 306 307 310 311 308 309 310 308 307 308 308 307 308 309 307 308 306 305 305 306 307 309 308 308 309 308 308 309 309 309 308 309
321 321 321 321 321 321 314 308 307 306 307 305 305 308 310 311 311 308 309 309 309 309 306 308 308 307 307 306 307 307 308 308 308 308 306 307 308 308 308 309 309 310 310 310 308
324 323 322 321 321 317 312 309 308 309 307 308 305 305 305 309 309 310 307 307 309 307 306 309 309 307 307 307 308 306 307 308 308 307 306 306 308 307 307 307 308 309 309 309 308
323 323 323 323 320 318 312 311 307 308 314 312 307 307 307 307 307 306 306 307 308 309 307 307 307 308 308 308 307 309 306 307 308 308 309 307 311 308 310 309 306 307 307 305 304
322 323 322 322 320 318 314 312 307 305 329 314 307 308 308 305 306 306 305 308 308 308 306 308 308 308 309 309 307 309 308 307 308 308 307 308 308 311 307 308 307 306 305 304 304
321 321 321 320 319 318 314 309 307 321 330 318 307 308 309 308 308 306 307 306 306 307 306 306 305 306 308 307 306 307 309 307 305 306 311 309 308 310 308 309 308 308 307 305 304
317 318 319 319 318 317 316 315 323 325 320 318 310 308 308 308 308 307 308 308 307 309 307 306 306 307 306 308 307 308 308 310 310 310 314 307 308 312 309 307 308 309 307 305 303
310 312 315 318 318 318 316 322 323 323 324 316 310 309 311 307 310 307 306 306 305 306 304 307 316 306 305 307 309 306 307 309 309 311 315 307 312 313 307 307 305 304 304 303 302
305 307 313 313 318 317 318 325 323 323 320 320 320 322 319 311 312 313 306 306 306 305 310 307 309 306 304 306 306 306 309 307 309 298 304 311 310 311 308 307 306 306 304 304 301
302 307 310 308 315 314 318 323 320 319 318 319 324 322 322 315 311 311 311 307 307 305 306 309 310 306 306 306 306 306 306 309 306 313 310 312 310 313 312 310 308 305 303 302 302
302 307 307 311 315 315 317 319 318 316 317 319 322 322 320 320 317 318 319 315 307 307 305 308 312 315 310 307 307 306 308 307 307 312 316 319 316 313 311 309 307 309 308 305 304
304 304 308 313 312 313 314 313 312 314 315 316 317 320 320 320 320 320 321 318 315 313 318 309 314 317 316 312 307 308 313 312 315 316 311 313 315 312 311 310 309 309 309 307 301
303 303 308 312 312 312 311 312 312 312 312 314 315 315 313 314 316 315 316 313 309 312 314 313 316 318 315 311 308 312 311 311 312 313 315 316 315 311 311 311 310 307 299 300 299
300 301 300 309 308 310 311 310 310 311 313 312 313 313 313 314 314 315 314 311 305 307 310 311 313 315 316 314 309 311 309 307 308 309 311 311 315 314 310 305 297 298 296 295 294
296 298 299 306 304 306 307 309 309 309 310 309 311 311 311 313 313 312 307 302 303 303 304 305 306 307 304 303 303 303 303 303 304 304 306 305 306 305 296 295 297 294 293 293 293
294 297 297 296 297 300 302 304 305 306 307 307 309 306 306 309 305 305 299 300 300 299 297 298 300 299 298 299 298 298 297 297 299 299 301 306 304 294 293 293 294 294 292 291 291
292 294 296 294 296 297 297 300 297 298 297 299 297 298 299 300 295 295 295 296 296 295 295 295 295 289 297 296 293 292 293 294 296 296 296 300 295 293 292 291 291 292 292 290 290
Wind_Speed
10 10 10 10 10 10 10 11 11 12 12 13 13 13 13 13 12 8 7 6 5 11 10 9 7 5 3 3 3 3 3 2 5 5 5 1 1 2 1 2 3 7 5 3 3
9 9 10 11 11 11 11 11 11 11 11 12 13 14 15 14 12 10 11 8 9 13 12 11 4 5 2 2 1 4 4 8 6 5 5 3 3 3 1 4 5 6 6 5 11
9 9 10 11 12 12 12 13 13 13 13 13 13 13 14 13 5 5 4 9 10 13 9 7 8 4 2 2 4 4 6 5 6 8 5 4 4 4 4 7 10 8 8 7 12
11 12 12 12 13 13 14 14 15 15 15 14 14 13 12 4 6 1 2 5 12 16 11 9 4 4 3 5 5 3 9 6 4 4 3 4 5 5 8 18 8 14 7 5 10
11 13 13 14 15 16 17 18 17 17 17 16 14 13 6 2 9 11 8 6 14 17 11 6 5 5 5 5 3 5 5 6 7 7 8 4 15 8 9 19 10 8 7 11 10
11 12 14 16 17 19 20 21 20 18 18 16 15 9 0 5 7 9 7 10 14 18 9 8 7 7 4 5 7 3 4 7 7 7 7 7 16 6 12 7 12 7 13 13 12
10 11 13 15 18 20 22 21 21 20 19 16 13 4 2 16 7 7 8 8 14 13 6 10 7 5 3 3 3 2 7 8 7 6 7 7 12 10 20 3 12 12 11 10 14
10 11 12 14 17 21 23 22 23 20 18 14 8 5 7 8 12 13 14 7 8 10 9 6 10 5 3 1 5 3 2 4 2 6 2 8 10 22 8 7 14 12 11 10 13
11 12 13 15 18 22 22 24 16 10 7 2 6 5 8 6 5 9 14 7 9 7 5 6 6 4 3 5 4 2 5 8 11 13 5 8 8 13 6 4 11 12 12 12 12
11 12 14 16 19 23 23 18 4 4 7 6 4 2 6 4 2 3 9 13 4 6 4 3 4 3 2 3 7 8 6 6 7 5 5 7 15 13 19 6 18 19 18 14 16
12 13 14 16 19 23 22 5 5 3 1 7 5 4 5 2 3 1 5 7 4 5 6 1 4 8 21 12 2 1 5 7 9 12 4 15 18 20 18 20 22 22 20 22 23
14 14 14 16 18 20 12 5 1 2 8 9 11 8 16 3 3 3 10 5 4 6 6 2 7 13 2 4 7 9 12 15 13 18 5 14 19 19 20 22 26 26 25 21 15
16 15 15 15 17 6 6 3 4 1 3 8 6 4 4 10 7 6 10 4 5 7 8 11 6 8 7 5 8 6 7 17 13 7 6 9 11 9 9 11 20 25 22 17 15
14 14 14 13 9 5 3 5 4 2 4 7 4 3 2 4 3 2 5 5 3 9 6 7 5 7 3 7 11 16 12 13 11 4 4 5 10 3 13 15 10 15 14 12 11
8 6 7 7 7 3 1 4 4 2 8 3 2 1 1 4 1 3 0 2 4 5 6 8 5 4 5 10 7 10 5 5 2 4 5 3 4 3 4 6 10 9 9 10 12
7 7 7 4 7 5 1 2 3 2 10 2 2 1 3 1 1 2 2 3 2 3 4 8 3 5 7 5 9 2 1 3 3 2 7 12 9 3 4 6 4 3 7 8 8
3 3 5 5 2 2 2 3 2 6 5 1 1 2 2 3 1 3 3 3 5 1 3 2 5 4 5 3 0 3 4 4 4 1 10 2 5 12 6 9 6 11 11 6 7
7 9 5 8 6 4 4 2 8 3 5 3 1 2 4 5 2 3 2 3 5 2 2 4 13 8 5 9 8 7 8 5 7 6 12 3 14 11 8 6 8 5 4 6 9
10 6 4 12 13 7 1 7 5 5 4 3 5 3 4 3 4 2 5 5 7 13 8 5 8 2 6 3 6 5 5 3 3 2 1 11 20 19 12 7 3 5 4 8 8
6 3 7 13 14 9 4 12 6 6 3 3 5 3 4 3 4 5 5 3 4 8 3 3 11 5 1 3 1 5 3 1 2 3 11 12 7 20 15 10 8 9 10 10 8
2 1 3 15 20 2 10 7 8 9 4 5 5 10 7 4 6 11 5 4 3 3 2 4 2 9 1 6 9 2 3 3 2 5 12 12 11 16 10 6 9 12 12 9 10
2 2 0 20 6 3 10 6 2 13 5 4 2 5 12 10 8 9 9 8 2 2 9 6 3 6 14 12 7 7 20 22 13 9 9 17 19 23 20 14 9 16 17 18 18
2 2 1 7 6 9 7 7 4 3 10 5 7 7 12 16 16 18 9 1 4 3 1 3 3 8 16 3 5 0 4 7 14 17 26 21 17 4 14 21 19 18 11 14 16
0 2 3 2 5 4 6 15 15 4 8 7 10 12 16 18 14 9 6 1 4 2 3 3 5 10 10 15 7 8 11 19 16 9 14 17 19 12 17 18 24 19 18 15 16
1 2 1 3 4 7 6 9 12 8 3 4 3 5 4 7 8 7 2 6 4 7 3 1 5 2 13 14 17 16 19 23 22 23 21 27 27 10 11 13 12 17 18 17 16
3 2 1 3 3 2 4 9 16 16 7 9 9 5 1 5 0 4 3 1 3 3 1 2 4 6 13 22 9 18 22 22 25 27 26 21 17 5 6 12 14 16 18 21 22
1 0 1 2 0 2 3 3 3 2 8 6 8 5 4 0 1 3 6 7 6 6 4 3 3 2 15 20 10 10 14 15 10 8 5 6 4 6 8 13 11 13 12 13 16
Wind_Direction
358 357 354 353 352 350 350 349 350 349 348 347 348 348 345 334 317 287 242 235 224 206 181 164 154 140 117 95 102 134 66 248 252 187 256 208 307 199 172 261 224 208 220 223 199
344 343 341 337 336 334 333 331 332 332 334 334 337 341 341 335 313 258 276 236 217 196 181 166 149 127 69 127 78 108 145 223 213 205 240 286 204 263 244 248 254 278 241 213 181
349 343 338 334 331 326 320 318 317 317 319 320 325 333 338 336 332 250 344 200 199 195 197 173 139 113 166 144 198 175 212 218 251 231 270 269 275 217 184 265 226 222 249 180 192
348 349 348 344 340 335 328 318 310 307 304 305 313 323 331 337 304 255 335 185 188 190 169 141 101 132 191 210 188 215 241 215 254 209 277 252 292 248 181 255 233 220 235 176 199
345 347 347 346 346 344 340 331 320 310 300 294 298 313 330 11 249 270 278 214 187 186 182 142 145 150 200 199 175 214 235 240 251 271 258 285 257 235 242 257 254 244 231 237 224
337 343 344 343 342 340 337 330 323 312 301 296 293 299 152 252 252 256 241 184 190 189 177 157 191 205 217 213 182 227 260 270 275 250 239 204 269 141 254 254 265 241 243 235 227
328 334 338 339 339 339 336 325 317 303 295 290 288 269 193 241 244 242 218 209 202 200 160 200 177 155 164 265 264 294 311 310 224 246 233 166 291 230 249 199 267 263 257 250 237
323 330 335 336 336 337 335 329 315 303 293 282 265 171 242 256 254 245 222 187 193 200 206 187 197 183 180 298 356 311 166 307 271 137 264 156 252 273 262 213 263 276 280 262 255
321 327 330 334 335 336 335 331 325 325 317 244 151 158 263 278 249 247 212 179 158 170 169 150 150 171 80 108 7 328 242 229 304 199 152 190 250 268 265 180 273 277 269 277 280
316 323 328 333 334 338 335 329 357 33 87 100 86 28 271 269 194 165 181 158 127 117 70 64 50 134 51 120 229 225 228 254 247 301 185 241 256 277 288 237 265 274 271 261 262
307 315 324 330 333 340 342 340 360 352 21 198 202 253 288 283 159 110 157 122 99 84 172 188 149 193 227 206 284 170 252 248 266 276 299 268 268 275 275 285 273 265 260 263 259
298 304 314 321 331 340 353 58 57 298 304 248 243 255 254 216 280 185 161 149 155 190 119 74 226 224 85 165 228 250 269 269 273 264 205 269 273 268 264 256 262 271 273 267 274
289 292 301 312 325 346 32 28 338 296 253 285 222 205 236 168 221 220 155 140 165 165 202 213 211 205 194 173 239 219 219 260 261 320 250 297 273 230 261 252 261 265 264 276 269
288 284 288 305 308 345 68 356 342 291 290 273 259 281 167 157 253 346 193 156 187 217 195 242 259 196 150 215 213 266 224 250 266 359 248 16 297 305 260 270 245 264 273 267 258
302 308 296 287 297 327 360 1 352 305 290 251 204 300 52 157 94 2 334 53 182 173 137 245 188 172 186 219 145 241 199 227 189 207 337 228 267 236 152 260 270 278 277 273 271
279 289 284 284 247 223 210 359 348 173 246 302 104 59 116 42 68 24 76 50 96 167 209 245 307 178 221 233 182 48 42 50 68 102 270 203 198 96 164 194 239 228 275 268 325
314 318 239 217 238 221 200 99 300 229 341 294 255 185 192 203 273 162 138 177 202 319 243 249 227 242 168 223 52 146 76 308 318 43 255 172 228 251 237 223 213 282 270 310 331
298 288 272 232 238 214 145 210 219 236 267 299 22 68 263 186 162 66 27 273 239 139 192 236 282 187 174 199 191 180 168 167 238 261 282 90 261 270 212 247 240 321 307 318 324
285 278 241 245 225 204 191 221 219 190 233 307 327 277 258 240 187 112 194 233 233 190 202 220 258 200 204 152 149 172 179 195 292 7 305 266 277 282 219 284 283 290 8 317 321
312 287 222 245 213 154 227 245 248 212 6 344 262 229 247 237 169 168 208 204 248 209 61 298 299 212 289 93 48 174 187 51 357 256 258 268 273 262 302 307 319 323 342 337 312
204 232 243 211 171 172 235 235 236 222 225 251 249 269 243 231 225 262 230 306 301 44 206 16 137 254 10 195 195 89 250 244 231 203 250 261 257 273 291 305 329 315 311 299 290
189 212 259 167 191 207 234 233 163 255 290 246 275 256 263 276 282 274 249 202 113 81 278 205 214 251 253 242 202 210 253 241 244 247 231 254 260 284 295 309 314 314 318 353 20
177 281 306 184 220 225 248 280 271 257 242 261 269 241 264 265 269 252 257 145 66 130 252 83 227 292 290 67 20 142 335 295 307 269 260 267 266 285 319 324 324 11 48 18 14
113 264 317 250 259 264 264 263 261 214 251 229 247 262 275 269 266 273 275 306 7 38 108 147 222 230 264 280 333 285 326 305 284 280 300 294 308 321 320 343 342 10 29 22 16
25 240 291 207 249 267 270 274 279 282 229 38 283 244 294 282 279 256 306 6 28 16 63 116 258 329 304 292 303 306 283 275 271 272 264 281 282 322 15 356 352 352 2 5 8
157 182 322 292 294 264 201 251 260 277 274 269 252 343 262 241 357 349 6 104 296 359 70 353 285 347 290 288 294 289 287 271 267 269 269 268 275 35 16 9 5 349 350 348 345
194 243 134 264 173 151 246 312 34 30 52 55 55 0 338 143 49 242 225 242 243 261 221 222 213 100 273 286 324 288 252 263 279 348 327 286 42 8 349 345 327 309 326 343 337